Time,TemperatureF,DewpointF,PressureIn,WindDirection,WindDirectionDegrees,WindSpeedMPH,WindSpeedGustMPH,Humidity,HourlyPrecipIn,Conditions,Clouds,dailyrainin,SoftwareType,DateUTC
2013-01-02 00:00:00,30.7,26.7,22.74,WNW,299,0.0,0.0,85,0.00,RA,,0.00,WeatherDisplay:10.37,2013-01-02 05:00:00,
2013-01-02 00:01:00,30.7,26.7,22.74,WNW,298,1.0,0.0,85,0.00,RA,,0.00,WeatherDisplay:10.37,2013-01-02 05:01:00,
2013-01-02 00:03:00,30.7,26.4,22.74,NW,322,3.5,3.5,84,0.00,RA,,0.00,WeatherDisplay:10.37,2013-01-02 05:03:00,
2013-01-02 00:08:00,30.6,26.6,22.74,WNW,298,0.0,0.0,85,0.00,RA,,0.00,WeatherDisplay:10.37,2013-01-02 05:08:00,
2013-01-02 00:13:00,30.6,26.6,22.74,North,360,0.0,0.0,85,0.00,CLR,,0.00,WeatherDisplay:10.37,2013-01-02 05:13:00,
2013-01-02 00:18:00,30.5,26.5,22.74,North,350,0.0,0.0,85,0.00,CLR,,0.00,WeatherDisplay:10.37,2013-01-02 05:18:00,
2013-01-02 00:23:00,30.4,26.4,22.74,WNW,300,1.1,0.0,85,0.00,CLR,,0.00,WeatherDisplay:10.37,2013-01-02 05:23:00,
2013-01-02 00:28:00,30.4,26.4,22.74,NNE,21,0.0,0.0,85,0.00,CLR,,0.00,WeatherDisplay:10.37,2013-01-02 05:28:00,
2013-01-02 00:33:00,30.5,26.8,22.74,NNE,16,0.0,0.0,86,0.00,CLR,,0.00,WeatherDisplay:10.37,2013-01-02 05:33:00,
2013-01-02 00:38:00,30.4,26.7,22.74,NNW,332,0.0,0.0,86,0.00,CLR,,0.00,WeatherDisplay:10.37,2013-01-02 05:38:00,
2013-01-02 00:43:00,30.3,26.6,22.74,NNW,331,0.0,0.0,86,0.00,CLR,,0.00,WeatherDisplay:10.37,2013-01-02 05:43:00,
2013-01-02 00:48:00,30.3,26.6,22.74,NNW,332,0.0,0.0,86,0.00,CLR,,0.00,WeatherDisplay:10.37,2013-01-02 05:48:00,
2013-01-02 00:53:00,30.1,26.1,22.74,NNW,330,0.0,0.0,85,0.00,CLR,,0.00,WeatherDisplay:10.37,2013-01-02 05:53:00,
2013-01-02 00:58:00,30.1,26.4,22.74,NNW,330,0.0,0.0,86,0.00,CLR,,0.00,WeatherDisplay:10.37,2013-01-02 05:58:00,
2013-01-02 01:03:00,30.1,26.4,22.74,WNW,288,2.0,2.0,86,0.00,CLR,,0.00,WeatherDisplay:10.37,2013-01-02 06:03:00,
2013-01-02 01:08:00,30.1,26.4,22.74,NW,307,1.1,0.0,86,0.00,CLR,,0.00,WeatherDisplay:10.37,2013-01-02 06:08:00,
2013-01-02 01:13:00,30.1,26.4,22.74,NW,323,0.0,0.0,86,0.00,CLR,,0.00,WeatherDisplay:10.37,2013-01-02 06:13:00,
2013-01-02 01:18:00,30.1,26.7,22.74,NW,322,0.0,0.0,87,0.00,CLR,,0.00,WeatherDisplay:10.37,2013-01-02 06:18:00,
2013-01-02 01:23:00,30.1,26.7,22.74,NW,323,0.0,0.0,87,0.00,CLR,,0.00,WeatherDisplay:10.37,2013-01-02 06:23:00,
2013-01-02 01:28:00,30.1,26.7,22.74,NW,321,3.5,3.5,87,0.00,CLR,,0.00,WeatherDisplay:10.37,2013-01-02 06:28:00,
2013-01-02 01:33:00,30.1,26.4,22.74,NW,321,0.0,0.0,86,0.00,CLR,,0.00,WeatherDisplay:10.37,2013-01-02 06:33:00,
2013-01-02 01:38:00,30.0,26.3,22.74,NW,321,0.0,0.0,86,0.00,CLR,,0.00,WeatherDisplay:10.37,2013-01-02 06:38:00,
2013-01-02 01:43:00,30.0,26.6,22.74,NW,321,0.0,0.0,87,0.00,CLR,,0.00,WeatherDisplay:10.37,2013-01-02 06:43:00,
2013-01-02 01:48:00,29.9,26.2,22.74,NW,321,0.0,0.0,86,0.00,CLR,,0.00,WeatherDisplay:10.37,2013-01-02 06:48:00,
2013-01-02 01:53:00,29.8,26.1,22.74,NW,321,0.0,0.0,86,0.00,CLR,,0.00,WeatherDisplay:10.37,2013-01-02 06:53:00,
2013-01-02 01:58:00,29.7,26.0,22.74,NW,321,0.0,0.0,86,0.00,CLR,,0.00,WeatherDisplay:10.37,2013-01-02 06:58:00,
2013-01-02 02:03:00,29.8,26.4,22.74,NW,321,1.1,0.0,87,0.00,CLR,,0.00,WeatherDisplay:10.37,2013-01-02 07:03:00,
2013-01-02 02:08:00,29.9,26.5,22.74,NW,321,1.0,1.0,87,0.00,CLR,,0.00,WeatherDisplay:10.37,2013-01-02 07:08:00,
2013-01-02 02:13:00,30.0,26.9,22.74,NW,321,0.0,0.0,88,0.00,CLR,,0.00,WeatherDisplay:10.37,2013-01-02 07:13:00,
2013-01-02 02:18:00,29.9,26.5,22.74,North,5,0.0,0.0,87,0.00,CLR,,0.00,WeatherDisplay:10.37,2013-01-02 07:18:00,
2013-01-02 02:23:00,29.9,26.5,22.74,North,360,0.0,0.0,87,0.00,CLR,,0.00,WeatherDisplay:10.37,2013-01-02 07:23:00,
2013-01-02 02:28:00,29.8,26.4,22.74,North,360,0.0,0.0,87,0.00,CLR,,0.00,WeatherDisplay:10.37,2013-01-02 07:28:00,
2013-01-02 02:33:00,29.8,26.4,22.74,North,355,0.0,0.0,87,0.00,CLR,,0.00,WeatherDisplay:10.37,2013-01-02 07:33:00,
2013-01-02 02:38:00,29.7,26.0,22.74,North,355,0.0,0.0,86,0.00,CLR,,0.00,WeatherDisplay:10.37,2013-01-02 07:38:00,
2013-01-02 02:43:00,29.8,26.4,22.74,NNW,340,1.1,0.0,87,0.00,CLR,,0.00,WeatherDisplay:10.37,2013-01-02 07:43:00,
2013-01-02 02:48:00,29.7,26.3,22.74,WNW,300,2.3,2.3,87,0.00,CLR,,0.00,WeatherDisplay:10.37,2013-01-02 07:48:00,
2013-01-02 02:54:00,29.7,26.0,22.74,WNW,300,1.1,0.0,86,0.00,CLR,,0.00,WeatherDisplay:10.37,2013-01-02 07:54:00,
2013-01-02 02:59:00,29.6,25.9,22.74,WNW,299,1.1,0.0,86,0.00,CLR,,0.00,WeatherDisplay:10.37,2013-01-02 07:59:00,
2013-01-02 03:04:00,29.6,25.9,22.74,WNW,299,0.0,0.0,86,0.00,CLR,,0.00,WeatherDisplay:10.37,2013-01-02 08:04:00,
2013-01-02 03:09:00,29.5,26.1,22.74,WNW,303,3.5,3.5,87,0.00,CLR,,0.00,WeatherDisplay:10.37,2013-01-02 08:09:00,
2013-01-02 03:14:00,29.5,25.8,22.74,WNW,303,0.0,0.0,86,0.00,CLR,,0.00,WeatherDisplay:10.37,2013-01-02 08:14:00,
2013-01-02 03:19:00,29.5,26.1,22.74,West,268,2.3,0.0,87,0.00,CLR,,0.00,WeatherDisplay:10.37,2013-01-02 08:19:00,
2013-01-02 03:24:00,29.5,26.1,22.74,West,268,1.1,0.0,87,0.00,CLR,,0.00,WeatherDisplay:10.37,2013-01-02 08:24:00,
2013-01-02 03:29:00,29.5,26.1,22.74,West,268,1.1,0.0,87,0.00,CLR,,0.00,WeatherDisplay:10.37,2013-01-02 08:29:00,
2013-01-02 03:34:00,29.3,25.6,22.74,West,268,0.0,0.0,86,0.00,CLR,,0.00,WeatherDisplay:10.37,2013-01-02 08:34:00,
2013-01-02 03:39:00,29.3,25.9,22.74,West,268,0.0,0.0,87,0.00,CLR,,0.00,WeatherDisplay:10.37,2013-01-02 08:39:00,
2013-01-02 03:44:00,29.4,26.3,22.74,West,268,0.0,0.0,88,0.00,CLR,,0.00,WeatherDisplay:10.37,2013-01-02 08:44:00,
2013-01-02 03:49:00,29.4,26.0,22.74,West,268,0.0,0.0,87,0.00,CLR,,0.00,WeatherDisplay:10.37,2013-01-02 08:49:00,
2013-01-02 03:54:00,29.3,25.9,22.74,West,268,0.0,0.0,87,0.00,CLR,,0.00,WeatherDisplay:10.37,2013-01-02 08:54:00,
2013-01-02 03:59:00,29.3,25.9,22.74,West,268,0.0,0.0,87,0.00,CLR,,0.00,WeatherDisplay:10.37,2013-01-02 08:59:00,
2013-01-02 04:04:00,29.2,25.8,22.74,West,268,0.0,0.4,87,0.00,CLR,,0.00,WeatherDisplay:10.37,2013-01-02 09:04:00,
2013-01-02 04:09:00,29.1,25.7,22.74,West,268,0.0,0.0,87,0.00,CLR,,0.00,WeatherDisplay:10.37,2013-01-02 09:09:00,
2013-01-02 04:14:00,28.9,25.2,22.74,West,268,0.0,0.2,86,0.00,CLR,,0.00,WeatherDisplay:10.37,2013-01-02 09:14:00,
2013-01-02 04:19:00,28.8,25.1,22.74,West,268,0.0,0.0,86,0.00,CLR,,0.00,WeatherDisplay:10.37,2013-01-02 09:19:00,
2013-01-02 04:24:00,28.8,25.4,22.74,West,268,2.3,2.3,87,0.00,CLR,,0.00,WeatherDisplay:10.37,2013-01-02 09:24:00,
2013-01-02 04:29:00,28.9,25.5,22.74,West,268,4.6,4.6,87,0.00,CLR,,0.00,WeatherDisplay:10.37,2013-01-02 09:29:00,
2013-01-02 04:34:00,28.8,25.1,22.74,West,280,3.5,3.5,86,0.00,CLR,,0.00,WeatherDisplay:10.37,2013-01-02 09:34:00,
2013-01-02 04:39:00,28.7,24.8,22.74,WSW,245,4.6,4.6,85,0.00,CLR,,0.00,WeatherDisplay:10.37,2013-01-02 09:39:00,
2013-01-02 04:44:00,28.6,24.4,22.74,West,281,4.0,4.0,84,0.00,CLR,,0.00,WeatherDisplay:10.37,2013-01-02 09:44:00,
2013-01-02 04:49:00,28.5,24.3,22.74,West,276,3.5,3.5,84,0.00,CLR,,0.00,WeatherDisplay:10.37,2013-01-02 09:49:00,
2013-01-02 04:55:00,28.5,24.3,22.74,West,259,3.5,3.5,84,0.00,CLR,,0.00,WeatherDisplay:10.37,2013-01-02 09:55:00,
2013-01-02 05:00:00,28.3,24.1,22.74,West,279,4.6,4.6,84,0.00,CLR,,0.00,WeatherDisplay:10.37,2013-01-02 10:00:00,
2013-01-02 05:05:00,28.2,24.0,22.74,West,277,8.1,8.1,84,0.00,CLR,,0.00,WeatherDisplay:10.37,2013-01-02 10:05:00,
2013-01-02 05:10:00,28.1,23.9,22.74,West,273,9.2,9.2,84,0.00,CLR,,0.00,WeatherDisplay:10.37,2013-01-02 10:10:00,
2013-01-02 05:15:00,28.1,23.9,22.74,WNW,290,3.5,3.5,84,0.00,CLR,,0.00,WeatherDisplay:10.37,2013-01-02 10:15:00,
2013-01-02 05:20:00,28.1,23.9,22.74,WSW,245,0.0,0.0,84,0.00,CLR,,0.00,WeatherDisplay:10.37,2013-01-02 10:20:00,
2013-01-02 05:25:00,27.9,23.7,22.74,NW,322,3.5,3.5,84,0.00,CLR,,0.00,WeatherDisplay:10.37,2013-01-02 10:25:00,
2013-01-02 05:30:00,27.7,23.5,22.74,NNW,336,3.5,3.5,84,0.00,CLR,,0.00,WeatherDisplay:10.37,2013-01-02 10:30:00,
2013-01-02 05:35:00,27.4,22.9,22.74,WSW,258,2.3,2.3,83,0.00,CLR,,0.00,WeatherDisplay:10.37,2013-01-02 10:35:00,
2013-01-02 05:40:00,27.2,22.7,22.74,WNW,296,3.5,3.5,83,0.00,CLR,,0.00,WeatherDisplay:10.37,2013-01-02 10:40:00,
2013-01-02 05:45:00,27.0,22.5,22.74,WNW,299,1.1,1.1,83,0.00,CLR,,0.00,WeatherDisplay:10.37,2013-01-02 10:45:00,
2013-01-02 05:50:00,27.0,22.5,22.74,West,277,1.1,1.1,83,0.00,CLR,,0.00,WeatherDisplay:10.37,2013-01-02 10:50:00,
2013-01-02 05:55:00,26.9,22.4,22.74,NW,325,0.0,0.0,83,0.00,CLR,,0.00,WeatherDisplay:10.37,2013-01-02 10:55:00,
2013-01-02 06:00:00,26.7,21.9,22.74,NW,324,0.0,0.0,82,0.00,CLR,,0.00,WeatherDisplay:10.37,2013-01-02 11:00:00,
2013-01-02 06:05:00,26.6,21.8,22.74,NNW,344,2.3,2.3,82,0.00,CLR,,0.00,WeatherDisplay:10.37,2013-01-02 11:05:00,
2013-01-02 06:10:00,26.6,21.8,22.74,NW,315,2.3,0.0,82,0.00,CLR,,0.00,WeatherDisplay:10.37,2013-01-02 11:10:00,
2013-01-02 06:15:00,26.5,21.7,22.74,WNW,293,0.0,0.0,82,0.00,CLR,,0.00,WeatherDisplay:10.37,2013-01-02 11:15:00,
2013-01-02 06:20:00,26.5,21.5,22.74,NW,306,3.5,3.5,81,0.00,CLR,,0.00,WeatherDisplay:10.37,2013-01-02 11:20:00,
2013-01-02 06:25:00,26.4,21.7,22.74,NW,318,0.0,0.3,82,0.00,CLR,,0.00,WeatherDisplay:10.37,2013-01-02 11:25:00,
2013-01-02 06:30:00,26.3,21.6,22.74,NW,307,4.6,4.6,82,0.00,CLR,,0.00,WeatherDisplay:10.37,2013-01-02 11:30:00,
2013-01-02 06:35:00,26.2,21.2,22.74,WNW,299,0.0,0.0,81,0.00,CLR,,0.00,WeatherDisplay:10.37,2013-01-02 11:35:00,
2013-01-02 06:40:00,26.2,21.2,22.74,NW,321,0.0,0.0,81,0.00,CLR,,0.00,WeatherDisplay:10.37,2013-01-02 11:40:00,
2013-01-02 06:45:00,26.2,21.5,22.74,NW,314,0.0,0.0,82,0.00,CLR,,0.00,WeatherDisplay:10.37,2013-01-02 11:45:00,
2013-01-02 06:50:00,26.2,21.5,22.74,WNW,300,0.0,0.0,82,0.00,CLR,,0.00,WeatherDisplay:10.37,2013-01-02 11:50:00,
2013-01-02 06:55:00,26.2,21.5,22.74,NW,304,3.0,3.0,82,0.00,CLR,,0.00,WeatherDisplay:10.37,2013-01-02 11:55:00,
2013-01-02 07:00:00,26.2,21.5,22.74,WNW,290,0.0,0.0,82,0.00,CLR,,0.00,WeatherDisplay:10.37,2013-01-02 12:00:00,
2013-01-02 07:05:00,26.1,21.4,22.74,WNW,302,2.0,2.0,82,0.00,CLR,,0.00,WeatherDisplay:10.37,2013-01-02 12:05:00,
2013-01-02 07:10:00,26.0,21.0,22.74,NW,321,0.0,0.1,81,0.00,CLR,,0.00,WeatherDisplay:10.37,2013-01-02 12:10:00,
2013-01-02 07:15:00,26.0,21.0,22.74,NW,321,0.0,0.0,81,0.00,CLR,,0.00,WeatherDisplay:10.37,2013-01-02 12:15:00,
2013-01-02 07:20:00,26.1,21.4,22.74,NW,326,0.0,0.0,82,0.00,CLR,,0.00,WeatherDisplay:10.37,2013-01-02 12:20:00,
2013-01-02 07:25:00,26.0,21.0,22.74,NW,315,0.0,0.0,81,0.00,CLR,,0.00,WeatherDisplay:10.37,2013-01-02 12:25:00,
2013-01-02 07:30:00,26.0,21.0,22.74,NW,313,0.0,0.0,81,0.00,CLR,,0.00,WeatherDisplay:10.37,2013-01-02 12:30:00,
2013-01-02 07:35:00,25.9,20.6,22.74,West,275,3.5,3.5,80,0.00,CLR,,0.00,WeatherDisplay:10.37,2013-01-02 12:35:00,
2013-01-02 07:40:00,25.8,20.2,22.74,West,261,0.0,0.0,79,0.00,CLR,,0.00,WeatherDisplay:10.37,2013-01-02 12:40:00,
2013-01-02 07:45:00,25.7,20.1,22.74,West,276,0.0,0.0,79,0.00,CLR,,0.00,WeatherDisplay:10.37,2013-01-02 12:45:00,
2013-01-02 07:50:00,25.7,20.1,22.74,West,277,3.5,3.5,79,0.00,CLR,,0.00,WeatherDisplay:10.37,2013-01-02 12:50:00,
2013-01-02 07:55:00,25.6,20.0,22.74,West,276,3.5,3.5,79,0.00,CLR,,0.00,WeatherDisplay:10.37,2013-01-02 12:55:00,
2013-01-02 08:00:00,25.6,20.0,22.74,WNW,296,5.8,5.8,79,0.00,CLR,,0.00,WeatherDisplay:10.37,2013-01-02 13:00:00,
2013-01-02 08:05:00,25.5,19.9,22.74,WNW,284,2.3,2.3,79,0.00,CLR,,0.00,WeatherDisplay:10.37,2013-01-02 13:05:00,
2013-01-02 08:10:00,25.5,20.2,22.74,WNW,284,2.3,2.3,80,0.00,CLR,,0.00,WeatherDisplay:10.37,2013-01-02 13:10:00,
2013-01-02 08:15:00,25.4,20.1,22.74,West,269,9.2,9.2,80,0.00,CLR,,0.00,WeatherDisplay:10.37,2013-01-02 13:15:00,
2013-01-02 08:20:00,25.4,20.1,22.74,West,271,6.0,6.0,80,0.00,CLR,,0.00,WeatherDisplay:10.37,2013-01-02 13:20:00,
2013-01-02 08:25:00,25.4,20.4,22.74,West,278,3.5,3.5,81,0.00,CLR,,0.00,WeatherDisplay:10.37,2013-01-02 13:25:00,
2013-01-02 08:30:00,25.3,20.0,22.74,WNW,283,3.5,3.5,80,0.00,CLR,,0.00,WeatherDisplay:10.37,2013-01-02 13:30:00,
2013-01-02 08:35:00,25.2,19.9,22.74,WNW,284,4.6,4.6,80,0.00,CLR,,0.00,WeatherDisplay:10.37,2013-01-02 13:35:00,
2013-01-02 08:40:00,25.1,20.1,22.74,WNW,283,0.0,0.0,81,0.00,CLR,,0.00,WeatherDisplay:10.37,2013-01-02 13:40:00,
2013-01-02 08:45:00,25.2,20.2,22.74,WNW,291,3.5,3.5,81,0.00,CLR,,0.00,WeatherDisplay:10.37,2013-01-02 13:45:00,
2013-01-02 08:50:00,25.3,20.3,22.74,WNW,289,6.9,6.9,81,0.00,CLR,,0.00,WeatherDisplay:10.37,2013-01-02 13:50:00,
2013-01-02 08:55:00,25.2,19.6,22.74,WNW,296,3.5,3.5,79,0.00,CLR,,0.00,WeatherDisplay:10.37,2013-01-02 13:55:00,
2013-01-02 09:00:00,25.2,19.6,22.74,NW,314,4.6,4.6,79,0.00,CLR,,0.00,WeatherDisplay:10.37,2013-01-02 14:00:00,
2013-01-02 09:05:00,25.2,19.6,22.74,WNW,282,4.6,4.6,79,0.00,CLR,,0.00,WeatherDisplay:10.37,2013-01-02 14:05:00,
2013-01-02 09:10:00,25.3,19.7,22.74,West,275,3.5,3.5,79,0.00,CLR,,0.00,WeatherDisplay:10.37,2013-01-02 14:10:00,
2013-01-02 09:15:00,25.4,19.8,22.74,WNW,287,4.6,4.6,79,0.00,CLR,,0.00,WeatherDisplay:10.37,2013-01-02 14:15:00,
2013-01-02 09:20:00,25.7,20.4,22.74,WSW,253,1.1,0.0,80,0.00,CLR,,0.00,WeatherDisplay:10.37,2013-01-02 14:20:00,
2013-01-02 09:25:00,26.1,20.5,22.74,West,267,4.6,4.6,79,0.00,CLR,,0.00,WeatherDisplay:10.37,2013-01-02 14:25:00,
2013-01-02 09:30:00,26.7,20.8,22.74,West,274,3.5,3.5,78,0.00,CLR,,0.00,WeatherDisplay:10.37,2013-01-02 14:30:00,
2013-01-02 09:35:00,27.6,21.0,22.74,West,259,6.9,6.9,76,0.00,CLR,,0.00,WeatherDisplay:10.37,2013-01-02 14:35:00,
2013-01-02 09:40:00,28.5,21.6,22.74,WSW,240,4.6,4.6,75,0.00,CLR,,0.00,WeatherDisplay:10.37,2013-01-02 14:40:00,
2013-01-02 09:45:00,29.0,21.7,22.74,WSW,254,5.8,5.8,74,0.00,CLR,,0.00,WeatherDisplay:10.37,2013-01-02 14:45:00,
2013-01-02 09:50:00,29.7,22.4,22.74,SW,236,5.8,5.8,74,0.00,CLR,,0.00,WeatherDisplay:10.37,2013-01-02 14:50:00,
2013-01-02 09:56:00,30.5,22.5,22.74,SW,236,4.6,4.6,72,0.00,CLR,,0.00,WeatherDisplay:10.37,2013-01-02 14:56:00,
2013-01-02 10:01:00,31.3,22.6,22.74,WSW,244,5.0,5.0,70,0.00,CLR,,0.00,WeatherDisplay:10.37,2013-01-02 15:01:00,
2013-01-02 10:06:00,31.9,22.9,22.74,SSW,207,2.0,0.0,69,0.01,RA,,0.01,WeatherDisplay:10.37,2013-01-02 15:06:00,
2013-01-02 10:11:00,32.3,22.9,22.74,WSW,244,4.6,4.6,68,0.01,RA,,0.01,WeatherDisplay:10.37,2013-01-02 15:11:00,
2013-01-02 10:16:00,32.4,22.3,22.74,West,274,10.0,10.0,66,0.01,CLR,,0.01,WeatherDisplay:10.37,2013-01-02 15:16:00,
2013-01-02 10:21:00,32.1,21.3,22.74,West,281,0.0,0.0,64,0.01,CLR,,0.01,WeatherDisplay:10.37,2013-01-02 15:21:00,
2013-01-02 10:26:00,32.6,22.8,22.74,WSW,246,5.0,5.0,67,0.01,CLR,,0.01,WeatherDisplay:10.37,2013-01-02 15:26:00,
2013-01-02 10:31:00,33.4,23.3,22.74,WSW,245,4.6,4.6,66,0.01,CLR,,0.01,WeatherDisplay:10.37,2013-01-02 15:31:00,
2013-01-02 10:36:00,33.4,22.5,22.74,SW,233,8.1,8.1,64,0.01,CLR,,0.01,WeatherDisplay:10.37,2013-01-02 15:36:00,
2013-01-02 10:41:00,32.0,20.8,22.74,West,272,3.5,3.5,63,0.01,CLR,,0.01,WeatherDisplay:10.37,2013-01-02 15:41:00,
2013-01-02 10:46:00,29.7,19.0,22.74,West,272,0.0,0.1,64,0.01,CLR,,0.01,WeatherDisplay:10.37,2013-01-02 15:46:00,
2013-01-02 10:51:00,29.6,21.0,22.74,West,271,3.5,3.5,70,0.01,CLR,,0.01,WeatherDisplay:10.37,2013-01-02 15:51:00,
2013-01-02 10:56:00,30.6,21.6,22.74,WSW,240,3.5,3.5,69,0.01,CLR,,0.01,WeatherDisplay:10.37,2013-01-02 15:56:00,
2013-01-02 11:01:00,30.9,20.9,22.74,SW,226,4.6,4.6,66,0.01,CLR,,0.01,WeatherDisplay:10.37,2013-01-02 16:01:00,
2013-01-02 11:06:00,30.6,20.9,22.74,WSW,249,4.0,4.0,67,0.00,CLR,,0.01,WeatherDisplay:10.37,2013-01-02 16:06:00,
2013-01-02 11:11:00,30.5,20.8,22.74,WSW,253,4.6,4.6,67,0.00,CLR,,0.01,WeatherDisplay:10.37,2013-01-02 16:11:00,
2013-01-02 11:16:00,30.4,21.1,22.74,WSW,256,4.6,4.6,68,0.00,CLR,,0.01,WeatherDisplay:10.37,2013-01-02 16:16:00,
2013-01-02 11:21:00,30.2,20.9,22.74,West,275,5.0,5.0,68,0.00,CLR,,0.01,WeatherDisplay:10.37,2013-01-02 16:21:00,
2013-01-02 11:26:00,29.8,20.2,22.74,West,268,1.1,0.0,67,0.00,CLR,,0.01,WeatherDisplay:10.37,2013-01-02 16:26:00,
2013-01-02 11:31:00,29.4,20.1,22.74,West,277,2.3,0.0,68,0.00,CLR,,0.01,WeatherDisplay:10.37,2013-01-02 16:31:00,
2013-01-02 11:36:00,29.5,20.2,22.74,West,277,0.0,0.0,68,0.00,CLR,,0.01,WeatherDisplay:10.37,2013-01-02 16:36:00,
2013-01-02 11:41:00,29.7,20.4,22.74,West,276,0.0,0.0,68,0.00,CLR,,0.01,WeatherDisplay:10.37,2013-01-02 16:41:00,
2013-01-02 11:46:00,30.4,21.4,22.74,WNW,291,4.6,4.6,69,0.00,CLR,,0.01,WeatherDisplay:10.37,2013-01-02 16:46:00,
2013-01-02 11:51:00,30.8,21.5,22.74,West,272,6.9,6.9,68,0.00,CLR,,0.01,WeatherDisplay:10.37,2013-01-02 16:51:00,
2013-01-02 11:56:00,30.8,21.1,22.74,West,268,5.8,5.8,67,0.00,CLR,,0.01,WeatherDisplay:10.37,2013-01-02 16:56:00,
2013-01-02 12:01:00,30.7,21.0,22.74,WSW,251,3.5,3.5,67,0.00,CLR,,0.01,WeatherDisplay:10.37,2013-01-02 17:01:00,
2013-01-02 12:06:00,31.0,21.3,22.74,SW,221,4.0,4.0,67,0.00,CLR,,0.01,WeatherDisplay:10.37,2013-01-02 17:06:00,
2013-01-02 12:11:00,32.2,21.7,22.74,SW,215,5.0,5.0,65,0.00,CLR,,0.01,WeatherDisplay:10.37,2013-01-02 17:11:00,
2013-01-02 12:16:00,32.9,21.7,22.74,West,260,3.5,3.5,63,0.00,CLR,,0.01,WeatherDisplay:10.37,2013-01-02 17:16:00,
2013-01-02 12:21:00,34.1,23.2,22.74,WSW,258,5.8,5.8,64,0.00,CLR,,0.01,WeatherDisplay:10.37,2013-01-02 17:21:00,
2013-01-02 12:26:00,35.3,23.2,22.74,WSW,244,6.9,6.9,61,0.00,CLR,,0.01,WeatherDisplay:10.37,2013-01-02 17:26:00,
2013-01-02 12:31:00,35.8,23.7,22.74,SW,227,5.0,5.0,61,0.00,CLR,,0.01,WeatherDisplay:10.37,2013-01-02 17:31:00,
2013-01-02 12:36:00,35.0,22.5,22.74,West,265,4.6,4.6,60,0.01,RA,,0.02,WeatherDisplay:10.37,2013-01-02 17:36:00,
2013-01-02 12:41:00,33.8,21.8,22.74,West,275,3.5,3.5,61,0.01,RA,,0.02,WeatherDisplay:10.37,2013-01-02 17:41:00,
2013-01-02 12:46:00,33.4,22.1,22.74,WNW,283,6.9,6.9,63,0.01,CLR,,0.02,WeatherDisplay:10.37,2013-01-02 17:46:00,
2013-01-02 12:51:00,33.5,22.2,22.74,WSW,256,5.0,5.0,63,0.01,CLR,,0.02,WeatherDisplay:10.37,2013-01-02 17:51:00,
2013-01-02 12:56:00,33.7,21.7,22.74,West,263,6.9,6.9,61,0.01,CLR,,0.02,WeatherDisplay:10.37,2013-01-02 17:56:00,
2013-01-02 13:01:00,33.3,21.3,22.74,West,261,3.0,3.0,61,0.01,CLR,,0.02,WeatherDisplay:10.37,2013-01-02 18:01:00,
2013-01-02 13:06:00,33.4,21.8,22.74,West,259,3.5,3.5,62,0.01,CLR,,0.02,WeatherDisplay:10.37,2013-01-02 18:06:00,
2013-01-02 13:11:00,34.0,21.6,22.74,WSW,249,6.9,6.9,60,0.01,CLR,,0.02,WeatherDisplay:10.37,2013-01-02 18:11:00,
2013-01-02 13:16:00,34.2,21.7,22.74,WSW,242,9.2,9.2,60,0.01,CLR,,0.02,WeatherDisplay:10.37,2013-01-02 18:16:00,
2013-01-02 13:21:00,34.4,21.5,22.74,WSW,243,10.4,10.4,59,0.01,CLR,,0.02,WeatherDisplay:10.37,2013-01-02 18:21:00,
2013-01-02 13:26:00,34.4,21.1,22.74,SW,234,5.8,5.8,58,0.01,CLR,,0.02,WeatherDisplay:10.37,2013-01-02 18:26:00,
2013-01-02 13:31:00,34.1,21.7,22.74,WSW,250,11.5,11.5,60,0.01,CLR,,0.02,WeatherDisplay:10.37,2013-01-02 18:31:00,
2013-01-02 13:36:00,34.2,21.7,22.74,WSW,250,5.8,5.8,60,0.00,CLR,,0.02,WeatherDisplay:10.37,2013-01-02 18:36:00,
2013-01-02 13:41:00,34.4,21.5,22.74,SW,231,6.9,6.9,59,0.00,CLR,,0.02,WeatherDisplay:10.37,2013-01-02 18:41:00,
2013-01-02 13:46:00,35.0,22.1,22.74,SW,230,6.9,6.9,59,0.00,CLR,,0.02,WeatherDisplay:10.37,2013-01-02 18:46:00,
2013-01-02 13:51:00,35.7,21.9,22.74,WSW,244,4.6,4.6,57,0.00,CLR,,0.03,WeatherDisplay:10.37,2013-01-02 18:51:00,
2013-01-02 13:56:00,35.8,22.9,22.74,WSW,243,0.0,0.0,59,0.01,RA,,0.03,WeatherDisplay:10.37,2013-01-02 18:56:00,
2013-01-02 14:01:00,35.0,21.7,22.74,NW,310,0.0,0.0,58,0.01,RA,,0.03,WeatherDisplay:10.37,2013-01-02 19:01:00,
2013-01-02 14:06:00,34.1,20.9,22.74,WSW,248,3.0,3.0,58,0.01,CLR,,0.03,WeatherDisplay:10.37,2013-01-02 19:06:00,
2013-01-02 14:11:00,34.5,22.0,22.74,SW,227,7.0,7.0,60,0.01,CLR,,0.03,WeatherDisplay:10.37,2013-01-02 19:11:00,
2013-01-02 14:16:00,35.5,23.0,22.74,WSW,246,2.3,2.3,60,0.01,CLR,,0.03,WeatherDisplay:10.37,2013-01-02 19:16:00,
2013-01-02 14:21:00,36.0,21.8,22.74,West,259,6.0,6.0,56,0.01,CLR,,0.03,WeatherDisplay:10.37,2013-01-02 19:21:00,
2013-01-02 14:26:00,36.0,22.2,22.74,West,265,6.9,6.9,57,0.01,CLR,,0.03,WeatherDisplay:10.37,2013-01-02 19:26:00,
2013-01-02 14:31:00,36.1,22.3,22.74,WSW,246,3.5,3.5,57,0.01,CLR,,0.03,WeatherDisplay:10.37,2013-01-02 19:31:00,
2013-01-02 14:36:00,35.6,21.4,22.74,West,264,3.5,3.5,56,0.01,CLR,,0.03,WeatherDisplay:10.37,2013-01-02 19:36:00,
2013-01-02 14:41:00,34.4,21.1,22.74,WSW,241,4.6,4.6,58,0.01,CLR,,0.03,WeatherDisplay:10.37,2013-01-02 19:41:00,
2013-01-02 14:46:00,34.9,21.6,22.74,SW,233,8.1,8.1,58,0.01,CLR,,0.03,WeatherDisplay:10.37,2013-01-02 19:46:00,
2013-01-02 14:51:00,35.1,21.4,22.74,SW,232,5.0,5.0,57,0.01,CLR,,0.03,WeatherDisplay:10.37,2013-01-02 19:51:00,
2013-01-02 14:56:00,35.3,20.7,22.74,WSW,250,5.8,5.8,55,0.00,CLR,,0.03,WeatherDisplay:10.37,2013-01-02 19:56:00,
2013-01-02 15:01:00,35.6,21.9,22.74,West,267,9.2,9.2,57,0.00,CLR,,0.03,WeatherDisplay:10.37,2013-01-02 20:01:00,
2013-01-02 15:06:00,35.1,21.0,22.74,West,269,4.6,4.6,56,0.01,RA,,0.04,WeatherDisplay:10.37,2013-01-02 20:06:00,
2013-01-02 15:11:00,34.8,20.7,22.74,SW,232,4.6,4.6,56,0.01,RA,,0.04,WeatherDisplay:10.37,2013-01-02 20:11:00,
2013-01-02 15:17:00,35.3,21.6,22.74,WSW,245,4.6,4.6,57,0.01,CLR,,0.04,WeatherDisplay:10.37,2013-01-02 20:17:00,
2013-01-02 15:22:00,35.9,21.3,22.74,West,280,7.0,7.0,55,0.01,CLR,,0.04,WeatherDisplay:10.37,2013-01-02 20:22:00,
2013-01-02 15:27:00,35.6,21.0,22.74,WSW,244,6.0,6.0,55,0.01,CLR,,0.04,WeatherDisplay:10.37,2013-01-02 20:27:00,
2013-01-02 15:32:00,35.3,21.2,22.74,West,279,2.3,2.3,56,0.01,CLR,,0.04,WeatherDisplay:10.37,2013-01-02 20:32:00,
2013-01-02 15:37:00,34.8,21.5,22.74,West,276,4.0,4.0,58,0.01,CLR,,0.04,WeatherDisplay:10.37,2013-01-02 20:37:00,
2013-01-02 15:42:00,35.3,21.2,22.74,West,273,6.0,6.0,56,0.01,CLR,,0.04,WeatherDisplay:10.37,2013-01-02 20:42:00,
2013-01-02 15:47:00,35.7,20.2,22.74,SW,229,2.3,2.3,53,0.01,CLR,,0.04,WeatherDisplay:10.37,2013-01-02 20:47:00,
2013-01-02 15:52:00,35.5,21.3,22.74,West,279,5.8,5.8,56,0.01,CLR,,0.04,WeatherDisplay:10.37,2013-01-02 20:52:00,
2013-01-02 15:57:00,35.1,20.5,22.74,West,281,2.3,2.3,55,0.01,CLR,,0.04,WeatherDisplay:10.37,2013-01-02 20:57:00,
2013-01-02 16:02:00,35.3,20.7,22.74,West,268,4.6,4.6,55,0.01,CLR,,0.04,WeatherDisplay:10.37,2013-01-02 21:02:00,
2013-01-02 16:07:00,35.1,21.0,22.74,WSW,246,3.5,3.5,56,0.00,CLR,,0.04,WeatherDisplay:10.37,2013-01-02 21:07:00,
2013-01-02 16:12:00,35.1,21.0,22.74,West,279,3.5,3.5,56,0.00,CLR,,0.04,WeatherDisplay:10.37,2013-01-02 21:12:00,
2013-01-02 16:17:00,35.1,21.0,22.74,West,275,3.5,3.5,56,0.00,CLR,,0.04,WeatherDisplay:10.37,2013-01-02 21:17:00,
2013-01-02 16:22:00,34.4,20.7,22.74,West,277,3.5,3.5,57,0.00,CLR,,0.04,WeatherDisplay:10.37,2013-01-02 21:22:00,
2013-01-02 16:27:00,34.0,20.3,22.74,West,281,3.5,3.5,57,0.00,CLR,,0.04,WeatherDisplay:10.37,2013-01-02 21:27:00,
2013-01-02 16:32:00,33.6,20.4,22.74,WSW,251,3.5,3.5,58,0.00,CLR,,0.04,WeatherDisplay:10.37,2013-01-02 21:32:00,
2013-01-02 16:37:00,33.5,20.3,22.74,WSW,251,3.5,3.5,58,0.00,CLR,,0.04,WeatherDisplay:10.37,2013-01-02 21:37:00,
2013-01-02 16:42:00,33.0,19.8,22.74,WSW,254,3.5,3.5,58,0.01,RA,,0.05,WeatherDisplay:10.37,2013-01-02 21:42:00,
2013-01-02 16:47:00,32.5,19.7,22.74,WSW,256,1.0,0.0,59,0.01,RA,,0.05,WeatherDisplay:10.37,2013-01-02 21:47:00,
2013-01-02 16:52:00,32.1,19.8,22.74,WSW,256,0.0,0.0,60,0.01,CLR,,0.05,WeatherDisplay:10.37,2013-01-02 21:52:00,
2013-01-02 16:57:00,31.8,19.9,22.74,WSW,256,3.5,3.5,61,0.01,CLR,,0.05,WeatherDisplay:10.37,2013-01-02 21:57:00,
2013-01-02 17:02:00,31.6,20.4,22.74,WSW,256,3.5,3.5,63,0.01,CLR,,0.05,WeatherDisplay:10.37,2013-01-02 22:02:00,
2013-01-02 17:07:00,31.1,19.2,22.74,WSW,256,3.5,3.5,61,0.01,CLR,,0.05,WeatherDisplay:10.37,2013-01-02 22:07:00,
2013-01-02 17:12:00,30.6,19.5,22.74,WSW,256,2.3,2.3,63,0.01,CLR,,0.05,WeatherDisplay:10.37,2013-01-02 22:12:00,
2013-01-02 17:17:00,30.4,19.7,22.74,WSW,256,0.0,0.0,64,0.01,CLR,,0.05,WeatherDisplay:10.37,2013-01-02 22:17:00,
2013-01-02 17:22:00,30.1,20.1,22.74,WSW,256,0.0,0.0,66,0.01,CLR,,0.05,WeatherDisplay:10.37,2013-01-02 22:22:00,
2013-01-02 17:27:00,30.0,20.7,22.74,WSW,256,0.0,0.0,68,0.01,CLR,,0.05,WeatherDisplay:10.37,2013-01-02 22:27:00,
2013-01-02 17:32:00,29.9,21.0,22.74,WSW,256,0.0,0.0,69,0.01,CLR,,0.05,WeatherDisplay:10.37,2013-01-02 22:32:00,
2013-01-02 17:37:00,29.8,21.2,22.74,WSW,256,0.0,0.0,70,0.01,CLR,,0.05,WeatherDisplay:10.37,2013-01-02 22:37:00,
2013-01-02 17:42:00,29.7,21.4,22.74,WSW,256,0.0,0.0,71,0.00,CLR,,0.05,WeatherDisplay:10.37,2013-01-02 22:42:00,
2013-01-02 17:47:00,29.5,21.3,22.74,WSW,256,0.0,0.0,71,0.00,CLR,,0.05,WeatherDisplay:10.37,2013-01-02 22:47:00,
2013-01-02 17:52:00,29.3,21.4,22.74,WSW,256,0.0,0.0,72,0.00,CLR,,0.05,WeatherDisplay:10.37,2013-01-02 22:52:00,
2013-01-02 17:57:00,29.1,21.5,22.74,WSW,256,0.0,0.0,73,0.00,CLR,,0.05,WeatherDisplay:10.37,2013-01-02 22:57:00,
2013-01-02 18:02:00,29.0,21.4,22.74,WSW,256,0.0,0.0,73,0.00,CLR,,0.05,WeatherDisplay:10.37,2013-01-02 23:02:00,
2013-01-02 18:07:00,28.8,21.6,22.74,WSW,256,0.0,0.0,74,0.00,CLR,,0.05,WeatherDisplay:10.37,2013-01-02 23:07:00,
2013-01-02 18:12:00,28.7,21.1,22.74,WSW,256,0.0,0.0,73,0.00,CLR,,0.05,WeatherDisplay:10.37,2013-01-02 23:12:00,
2013-01-02 18:17:00,28.6,22.3,22.74,WSW,256,0.0,0.0,77,0.00,CLR,,0.05,WeatherDisplay:10.37,2013-01-02 23:17:00,
2013-01-02 18:22:00,28.7,22.7,22.74,WSW,256,0.0,0.0,78,0.00,CLR,,0.05,WeatherDisplay:10.37,2013-01-02 23:22:00,
2013-01-02 18:27:00,28.4,21.5,22.74,WSW,256,0.0,0.0,75,0.00,CLR,,0.05,WeatherDisplay:10.37,2013-01-02 23:27:00,
2013-01-02 18:32:00,28.2,21.6,22.74,WSW,256,0.0,0.0,76,0.00,CLR,,0.05,WeatherDisplay:10.37,2013-01-02 23:32:00,
2013-01-02 18:37:00,27.8,21.2,22.74,WSW,256,0.0,0.0,76,0.00,CLR,,0.05,WeatherDisplay:10.37,2013-01-02 23:37:00,
2013-01-02 18:42:00,27.9,22.8,22.74,WSW,256,0.0,0.0,81,0.00,CLR,,0.05,WeatherDisplay:10.37,2013-01-02 23:42:00,
2013-01-02 18:47:00,28.2,24.0,22.74,WSW,256,0.0,0.0,84,0.00,CLR,,0.05,WeatherDisplay:10.37,2013-01-02 23:47:00,
2013-01-02 18:52:00,28.5,24.6,22.74,WSW,256,0.0,0.0,85,0.00,CLR,,0.05,WeatherDisplay:10.37,2013-01-02 23:52:00,
2013-01-02 18:57:00,28.8,25.4,22.74,WSW,256,0.0,0.0,87,0.00,CLR,,0.05,WeatherDisplay:10.37,2013-01-02 23:57:00,
2013-01-02 19:02:00,28.6,24.1,22.74,WSW,256,0.0,0.0,83,0.00,CLR,,0.05,WeatherDisplay:10.37,2013-01-03 00:02:00,
2013-01-02 19:07:00,28.0,22.3,22.74,WSW,256,0.0,0.0,79,0.00,CLR,,0.05,WeatherDisplay:10.37,2013-01-03 00:07:00,
2013-01-02 19:12:00,27.7,22.3,22.74,WSW,256,0.0,0.0,80,0.00,CLR,,0.05,WeatherDisplay:10.37,2013-01-03 00:12:00,
2013-01-02 19:17:00,27.7,22.9,22.74,WSW,256,0.0,0.0,82,0.00,CLR,,0.05,WeatherDisplay:10.37,2013-01-03 00:17:00,
2013-01-02 19:22:00,27.6,22.2,22.74,WSW,256,0.0,0.0,80,0.00,CLR,,0.05,WeatherDisplay:10.37,2013-01-03 00:22:00,
2013-01-02 19:27:00,27.3,21.6,22.74,WSW,256,0.0,0.0,79,0.00,CLR,,0.05,WeatherDisplay:10.37,2013-01-03 00:27:00,
2013-01-02 19:33:00,26.9,21.3,22.74,WSW,256,0.0,0.0,79,0.00,CLR,,0.05,WeatherDisplay:10.37,2013-01-03 00:33:00,
2013-01-02 19:38:00,26.9,22.1,22.74,WSW,256,0.0,0.0,82,0.00,CLR,,0.05,WeatherDisplay:10.37,2013-01-03 00:38:00,
2013-01-02 19:43:00,26.8,22.0,22.74,WSW,256,0.0,0.0,82,0.00,CLR,,0.05,WeatherDisplay:10.37,2013-01-03 00:43:00,
2013-01-02 19:48:00,26.7,21.7,22.74,WSW,256,0.0,0.0,81,0.00,CLR,,0.05,WeatherDisplay:10.37,2013-01-03 00:48:00,
2013-01-02 19:53:00,26.7,21.9,22.74,WSW,256,0.0,0.0,82,0.00,CLR,,0.05,WeatherDisplay:10.37,2013-01-03 00:53:00,
2013-01-02 19:58:00,26.8,22.6,22.74,WSW,256,0.0,0.0,84,0.00,CLR,,0.05,WeatherDisplay:10.37,2013-01-03 00:58:00,
2013-01-02 20:03:00,26.7,22.2,22.74,WSW,256,0.0,0.0,83,0.00,CLR,,0.05,WeatherDisplay:10.37,2013-01-03 01:03:00,
2013-01-02 20:08:00,26.6,22.1,22.74,WSW,256,0.0,0.0,83,0.00,CLR,,0.05,WeatherDisplay:10.37,2013-01-03 01:08:00,
2013-01-02 20:13:00,26.7,22.2,22.74,WSW,256,0.0,0.0,83,0.00,CLR,,0.05,WeatherDisplay:10.37,2013-01-03 01:13:00,
2013-01-02 20:18:00,26.9,23.3,22.74,WSW,256,0.0,0.0,86,0.00,CLR,,0.05,WeatherDisplay:10.37,2013-01-03 01:18:00,
2013-01-02 20:23:00,26.9,23.0,22.74,WSW,256,0.0,0.0,85,0.00,CLR,,0.05,WeatherDisplay:10.37,2013-01-03 01:23:00,
2013-01-02 20:28:00,26.7,22.5,22.74,WSW,256,0.0,0.0,84,0.00,CLR,,0.05,WeatherDisplay:10.37,2013-01-03 01:28:00,
2013-01-02 20:33:00,26.7,22.8,22.74,WSW,256,0.0,0.0,85,0.00,CLR,,0.05,WeatherDisplay:10.37,2013-01-03 01:33:00,
2013-01-02 20:38:00,26.5,22.0,22.74,WSW,256,0.0,0.0,83,0.00,CLR,,0.05,WeatherDisplay:10.37,2013-01-03 01:38:00,
2013-01-02 20:43:00,26.0,21.3,22.74,WSW,256,0.0,0.0,82,0.00,CLR,,0.05,WeatherDisplay:10.37,2013-01-03 01:43:00,
2013-01-02 20:48:00,25.7,20.7,22.74,WSW,256,0.0,0.0,81,0.00,CLR,,0.05,WeatherDisplay:10.37,2013-01-03 01:48:00,
2013-01-02 20:53:00,25.5,20.8,22.74,WSW,256,0.0,0.0,82,0.00,CLR,,0.05,WeatherDisplay:10.37,2013-01-03 01:53:00,
2013-01-02 20:58:00,25.3,20.9,22.74,WSW,256,0.0,0.0,83,0.00,CLR,,0.05,WeatherDisplay:10.37,2013-01-03 01:58:00,
2013-01-02 21:03:00,25.3,21.1,22.74,WSW,256,0.0,0.0,84,0.00,CLR,,0.05,WeatherDisplay:10.37,2013-01-03 02:03:00,
2013-01-02 21:08:00,25.2,20.8,22.74,WSW,256,0.0,0.0,83,0.00,CLR,,0.05,WeatherDisplay:10.37,2013-01-03 02:08:00,
2013-01-02 21:13:00,25.2,21.0,22.74,WSW,256,0.0,0.0,84,0.00,CLR,,0.05,WeatherDisplay:10.37,2013-01-03 02:13:00,
2013-01-02 21:18:00,25.3,21.4,22.74,WSW,256,0.0,0.0,85,0.00,CLR,,0.05,WeatherDisplay:10.37,2013-01-03 02:18:00,
2013-01-02 21:23:00,25.5,22.2,22.74,WSW,256,0.0,0.0,87,0.00,CLR,,0.05,WeatherDisplay:10.37,2013-01-03 02:23:00,
2013-01-02 21:28:00,25.5,22.2,22.74,WSW,256,0.0,0.0,87,0.00,CLR,,0.05,WeatherDisplay:10.37,2013-01-03 02:28:00,
2013-01-02 21:33:00,25.4,21.5,22.74,WSW,256,0.0,0.0,85,0.00,CLR,,0.05,WeatherDisplay:10.37,2013-01-03 02:33:00,
2013-01-02 21:38:00,25.2,21.3,22.74,WSW,256,0.0,0.0,85,0.00,CLR,,0.05,WeatherDisplay:10.37,2013-01-03 02:38:00,
2013-01-02 21:43:00,25.2,21.9,22.74,WSW,256,0.0,0.0,87,0.00,CLR,,0.05,WeatherDisplay:10.37,2013-01-03 02:43:00,
2013-01-02 21:48:00,25.4,22.3,22.74,WSW,256,0.0,0.0,88,0.00,CLR,,0.05,WeatherDisplay:10.37,2013-01-03 02:48:00,
2013-01-02 21:53:00,25.2,21.9,22.74,WSW,256,0.0,0.0,87,0.00,CLR,,0.05,WeatherDisplay:10.37,2013-01-03 02:53:00,
2013-01-02 21:58:00,25.1,21.8,22.74,WSW,256,0.0,0.0,87,0.00,CLR,,0.05,WeatherDisplay:10.37,2013-01-03 02:58:00,
2013-01-02 22:03:00,25.2,22.1,22.74,WSW,256,0.0,0.0,88,0.00,CLR,,0.05,WeatherDisplay:10.37,2013-01-03 03:03:00,
2013-01-02 22:08:00,25.2,22.1,22.74,WSW,256,0.0,0.0,88,0.00,CLR,,0.05,WeatherDisplay:10.37,2013-01-03 03:08:00,
2013-01-02 22:13:00,25.3,22.5,22.74,WSW,256,0.0,0.0,89,0.00,CLR,,0.05,WeatherDisplay:10.37,2013-01-03 03:13:00,
2013-01-02 22:18:00,25.4,22.6,22.74,WSW,256,0.0,0.0,89,0.00,CLR,,0.05,WeatherDisplay:10.37,2013-01-03 03:18:00,
2013-01-02 22:23:00,25.6,23.1,22.74,WSW,256,0.0,0.0,90,0.00,CLR,,0.05,WeatherDisplay:10.37,2013-01-03 03:23:00,
2013-01-02 22:31:00,25.9,23.4,22.74,WSW,256,0.0,0.0,90,0.00,CLR,,0.05,WeatherDisplay:10.37,2013-01-03 03:31:00,
2013-01-02 22:37:00,25.8,23.3,22.74,WSW,256,0.0,0.0,90,0.00,CLR,,0.05,WeatherDisplay:10.37,2013-01-03 03:37:00,
2013-01-02 22:42:00,25.8,23.3,22.74,WSW,256,0.0,0.0,90,0.00,CLR,,0.05,WeatherDisplay:10.37,2013-01-03 03:42:00,
2013-01-02 22:47:00,25.4,22.6,22.74,WSW,256,0.0,0.0,89,0.00,CLR,,0.05,WeatherDisplay:10.37,2013-01-03 03:47:00,
2013-01-02 22:52:00,25.3,22.8,22.74,WSW,256,0.0,0.0,90,0.00,CLR,,0.05,WeatherDisplay:10.37,2013-01-03 03:52:00,
2013-01-02 22:57:00,25.4,22.9,22.74,WSW,256,0.0,0.0,90,0.00,CLR,,0.05,WeatherDisplay:10.37,2013-01-03 03:57:00,
2013-01-02 23:02:00,25.5,23.0,22.74,WSW,256,0.0,0.0,90,0.00,CLR,,0.05,WeatherDisplay:10.37,2013-01-03 04:02:00,
2013-01-02 23:07:00,25.6,23.3,22.74,WSW,256,0.0,0.0,91,0.00,CLR,,0.05,WeatherDisplay:10.37,2013-01-03 04:07:00,
2013-01-02 23:12:00,25.3,22.8,22.74,WSW,256,0.0,0.0,90,0.00,CLR,,0.05,WeatherDisplay:10.37,2013-01-03 04:12:00,
2013-01-02 23:17:00,25.2,22.7,22.74,WSW,256,0.0,0.0,90,0.00,CLR,,0.05,WeatherDisplay:10.37,2013-01-03 04:17:00,
2013-01-02 23:23:00,24.7,21.7,22.74,WSW,256,0.0,0.0,88,0.00,CLR,,0.05,WeatherDisplay:10.37,2013-01-03 04:23:00,
2013-01-02 23:28:00,24.4,21.4,22.74,WSW,256,0.0,0.0,88,0.00,CLR,,0.05,WeatherDisplay:10.37,2013-01-03 04:28:00,
2013-01-02 23:33:00,24.1,21.1,22.74,WSW,256,0.0,0.0,88,0.00,CLR,,0.05,WeatherDisplay:10.37,2013-01-03 04:33:00,
2013-01-02 23:38:00,24.0,21.0,22.74,WSW,256,0.0,0.0,88,0.00,CLR,,0.05,WeatherDisplay:10.37,2013-01-03 04:38:00,
2013-01-02 23:43:00,23.9,20.9,22.74,WSW,256,0.0,0.0,88,0.00,CLR,,0.05,WeatherDisplay:10.37,2013-01-03 04:43:00,
2013-01-02 23:48:00,24.2,21.7,22.74,WSW,256,0.0,0.0,90,0.00,CLR,,0.05,WeatherDisplay:10.37,2013-01-03 04:48:00,
2013-01-02 23:53:00,24.4,21.9,22.74,WSW,256,0.0,0.0,90,0.00,CLR,,0.05,WeatherDisplay:10.37,2013-01-03 04:53:00,
2013-01-02 23:58:00,24.6,22.1,22.74,WSW,256,0.0,0.0,90,0.00,CLR,,0.05,WeatherDisplay:10.37,2013-01-03 04:58:00,